Location: Casilda
(33.0440°S, 61.1680°W)
Time: 08:54:12
(UTC-03:00)

ISS - Pass Details

Date: 16 December 2018
Orbit: 401 x 408 km, 51.6° (Epoch: 16 December)

Event Time Altitude Azimuth Distance (km) Brightness Sun altitude
Rises 21:10:37 0° 337° (NNW) 2,308 -0.1 -11.4°
Reaches altitude 10° 21:12:50 10° 349° (N) 1,458 -1.3 -11.8°
Maximum altitude 21:15:42 28° 50° (NE) 801 -2.9 -12.2°
Drops below altitude 10° 21:18:35 10° 111° (ESE) 1,478 -1.3 -12.7°
Sets 21:20:52 0° 123° (ESE) 2,348 -0.1 -13.1°
